Home   Weather   Puerto Vallarta   Past weeks

Flag for Mexico Past Weather in Puerto Vallarta, Jalisco, Mexico — Yesterday and Last 2 Weeks

81 °F

Passing clouds.

Feels Like: 87 °F
Forecast: 77 / 90 °F
Wind: 2 mph from Northeast

Location: Puerto Vallarta / Lic

Current Time: Oct 24, 2016 at 12:20:52 AM

Latest Report: Oct 23, 2016 at 11:47 PM

Visibility: 15 mi

Pressure: 29.97 "Hg

Humidity: 89%

Dew Point: 77 °F

Location of Puerto VallartaLocation

Past Weather in Puerto Vallarta — Graph


Puerto Vallarta Temperature Yesterday

Maximum temperature yesterday: 88 °F (at 1:45 PM)
Minimum temperature yesterday: 75 °F (at 3:47 AM)
Average temperature yesterday: 82 °F

High & Low Weather Summary for the Past Weeks

High91 °F (Oct 10, 1:46 PM)100% (Oct 9, 5:42 AM)29.96 "Hg (Oct 9, 5:42 AM)
Low72 °F (Oct 21, 7:48 AM)14% (Oct 10, 1:46 PM)29.71 "Hg (Oct 20, 5:49 PM)
Average83 °F83%29.85 "Hg
* Reported Oct 8 10:44 PM — Oct 23 9:47 PM, Puerto Vallarta, Weather by CustomWeather, © 2016

Note: Actual official high and low records may vary slightly from our data, if they occured in-between our weather recording intervals... More about our weather records


Puerto Vallarta Weather History for the Previous 24 Hours

Scroll right to see more
Time TempWeatherWind HumidityBarometerVisibility
9:47 PM
Sun, Oct 23
82 °FPassing clouds.2 mph89%29.93 "Hg15 mi
8:47 PM84 °FPassing clouds.2 mph84%29.90 "Hg15 mi
6:52 PM86 °FSunny.8 mph79%29.86 "Hg15 mi
5:45 PM88 °FSunny.8 mph70%29.86 "Hg15 mi
4:47 PM88 °FSunny.9 mph70%29.86 "Hg15 mi
3:47 PM88 °FSunny.7 mph66%29.87 "Hg15 mi
2:47 PM88 °FSunny.8 mph62%29.89 "Hg15 mi
1:45 PM88 °FSunny.7 mph66%29.91 "Hg15 mi
12:52 PM86 °FPassing clouds.7 mph70%29.93 "Hg15 mi
11:46 AM84 °FBroken clouds.No wind74%29.95 "Hg15 mi
10:48 AM81 °FPartly sunny.5 mph79%29.95 "Hg15 mi
9:47 AM77 °FScattered clouds.5 mph83%29.93 "Hg15 mi
8:49 AM75 °FScattered clouds.7 mph89%29.92 "Hg15 mi
7:49 AM75 °FPassing clouds.5 mph89%29.91 "Hg15 mi
3:47 AM75 °FPartly cloudy.7 mph94%29.90 "Hg12 mi
2:45 AM77 °FClear.5 mph89%29.92 "Hg12 mi
1:51 AM77 °FClear.5 mph94%29.92 "Hg12 mi
Weather by CustomWeather, © 2016

See weather overviewHow to use our weather pages